owner,sensor,date,latitude,longitude,vertical_datum,wind_speed,wind_to_direction,wind_speed_of_gust,qcFlag 
TCOON,ioos:station:TCOON:524:1,2008-12-01T00:00:00Z,29.8672,-93.9310,0.0,4.3,288.0,5.5,'11111222,11111222,11111222' 
TCOON,ioos:station:TCOON:524:1,2008-12-01T00:06:00Z,29.8672,-93.9310,0.0,2.8,283.0,4.4,'11111222,11111222,11111222' 
TCOON,ioos:station:TCOON:524:1,2008-12-01T00:12:00Z,29.8672,-93.9310,0.0,4.1,288.0,5.7,'11111222,11111222,11111222' 
TCOON,ioos:station:TCOON:524:1,2008-12-01T00:18:00Z,29.8672,-93.9310,0.0,3.4,277.0,5.0,'11111222,11111222,11111222' 
TCOON,ioos:station:TCOON:524:1,2008-12-01T00:24:00Z,29.8672,-93.9310,0.0,3.8,275.0,6.3,'11111222,11111222,11111222' 
TCOON,ioos:station:TCOON:524:1,2008-12-01T00:30:00Z,29.8672,-93.9310,0.0,3.2,273.0,5.2,'11111222,11111222,11111222' 
TCOON,ioos:station:TCOON:524:1,2008-12-01T00:36:00Z,29.8672,-93.9310,0.0,2.8,276.0,3.7,'11111222,11111222,11111222' 
TCOON,ioos:station:TCOON:524:1,2008-12-01T00:42:00Z,29.8672,-93.9310,0.0,2.8,274.0,4.0,'11111222,11111222,11111222' 
TCOON,ioos:station:TCOON:524:1,2008-12-01T00:48:00Z,29.8672,-93.9310,0.0,2.9,271.0,4.2,'11111222,11111222,11111222' 
TCOON,ioos:station:TCOON:524:1,2008-12-01T00:54:00Z,29.8672,-93.9310,0.0,3.2,281.0,4.5,'11111222,11111222,11111222' 
TCOON,ioos:station:TCOON:524:1,2008-12-01T01:00:00Z,29.8672,-93.9310,0.0,3.1,276.0,4.6,'11111222,11111222,11111222' 
TCOON,ioos:station:TCOON:524:1,2008-12-01T02:06:00Z,29.8672,-93.9310,0.0,3.2,281.0,4.5,'11111222,11111222,11111222' 
TCOON,ioos:station:TCOON:524:1,2008-12-01T02:12:00Z,29.8672,-93.9310,0.0,3.1,284.0,4.8,'11111222,11111222,11111222' 
TCOON,ioos:station:TCOON:524:1,2008-12-01T02:18:00Z,29.8672,-93.9310,0.0,3.5,279.0,5.5,'11111222,11111222,11111222' 
TCOON,ioos:station:TCOON:524:1,2008-12-01T02:24:00Z,29.8672,-93.9310,0.0,3.3,268.0,5.0,'11111222,11111222,11111222' 
TCOON,ioos:station:TCOON:524:1,2008-12-01T02:30:00Z,29.8672,-93.9310,0.0,3.8,271.0,6.9,'11111222,11111222,11111222' 
TCOON,ioos:station:TCOON:524:1,2008-12-01T02:36:00Z,29.8672,-93.9310,0.0,3.8,276.0,5.4,'11111222,11111222,11111222' 
TCOON,ioos:station:TCOON:524:1,2008-12-01T02:42:00Z,29.8672,-93.9310,0.0,4.5,272.0,7.6,'11111222,11111222,11111222' 
TCOON,ioos:station:TCOON:524:1,2008-12-01T02:48:00Z,29.8672,-93.9310,0.0,3.8,272.0,5.9,'11111222,11111222,11111222' 
TCOON,ioos:station:TCOON:524:1,2008-12-01T02:54:00Z,29.8672,-93.9310,0.0,3.6,266.0,4.8,'11111222,11111222,11111222' 
TCOON,ioos:station:TCOON:524:1,2008-12-01T03:00:00Z,29.8672,-93.9310,0.0,3.3,267.0,4.2,'11111222,11111222,11111222' 
TCOON,ioos:station:TCOON:524:1,2008-12-01T03:06:00Z,29.8672,-93.9310,0.0,4.5,274.0,7.4,'11111222,11111222,11111222' 
TCOON,ioos:station:TCOON:524:1,2008-12-01T03:12:00Z,29.8672,-93.9310,0.0,3.9,283.0,5.3,'11111222,11111222,11111222' 
TCOON,ioos:station:TCOON:524:1,2008-12-01T03:18:00Z,29.8672,-93.9310,0.0,4.8,279.0,6.6,'11111222,11111222,11111222' 
TCOON,ioos:station:TCOON:524:1,2008-12-01T03:24:00Z,29.8672,-93.9310,0.0,4.4,280.0,6.5,'11111222,11111222,11111222' 
TCOON,ioos:station:TCOON:524:1,2008-12-01T03:30:00Z,29.8672,-93.9310,0.0,4.1,285.0,6.3,'11111222,11111222,11111222' 
TCOON,ioos:station:TCOON:524:1,2008-12-01T03:36:00Z,29.8672,-93.9310,0.0,4.5,270.0,6.8,'11111222,11111222,11111222' 
TCOON,ioos:station:TCOON:524:1,2008-12-01T03:42:00Z,29.8672,-93.9310,0.0,3.7,270.0,5.0,'11111222,11111222,11111222' 
TCOON,ioos:station:TCOON:524:1,2008-12-01T03:48:00Z,29.8672,-93.9310,0.0,4.5,271.0,6.0,'11111222,11111222,11111222' 
TCOON,ioos:station:TCOON:524:1,2008-12-01T03:54:00Z,29.8672,-93.9310,0.0,5.4,269.0,7.3,'11111222,11111222,11111222' 
TCOON,ioos:station:TCOON:524:1,2008-12-01T04:00:00Z,29.8672,-93.9310,0.0,5.2,271.0,7.3,'11111222,11111222,11111222' 
TCOON,ioos:station:TCOON:524:1,2008-12-01T04:06:00Z,29.8672,-93.9310,0.0,4.5,276.0,6.4,'11111222,11111222,11111222' 
TCOON,ioos:station:TCOON:524:1,2008-12-01T04:12:00Z,29.8672,-93.9310,0.0,4.9,274.0,7.6,'11111222,11111222,11111222' 
TCOON,ioos:station:TCOON:524:1,2008-12-01T04:18:00Z,29.8672,-93.9310,0.0,4.4,275.0,6.3,'11111222,11111222,11111222' 
TCOON,ioos:station:TCOON:524:1,2008-12-01T04:24:00Z,29.8672,-93.9310,0.0,5.1,275.0,6.7,'11111222,11111222,11111222' 
TCOON,ioos:station:TCOON:524:1,2008-12-01T04:30:00Z,29.8672,-93.9310,0.0,4.5,276.0,6.2,'11111222,11111222,11111222' 
TCOON,ioos:station:TCOON:524:1,2008-12-01T04:36:00Z,29.8672,-93.9310,0.0,3.9,277.0,5.9,'11111222,11111222,11111222' 
TCOON,ioos:station:TCOON:524:1,2008-12-01T04:42:00Z,29.8672,-93.9310,0.0,4.1,273.0,5.9,'11111222,11111222,11111222' 
TCOON,ioos:station:TCOON:524:1,2008-12-01T04:48:00Z,29.8672,-93.9310,0.0,4.0,275.0,5.3,'11111222,11111222,11111222' 
TCOON,ioos:station:TCOON:524:1,2008-12-01T04:54:00Z,29.8672,-93.9310,0.0,5.3,273.0,7.7,'11111222,11111222,11111222' 
TCOON,ioos:station:TCOON:524:1,2008-12-01T05:00:00Z,29.8672,-93.9310,0.0,4.7,274.0,7.3,'11111222,11111222,11111222' 
TCOON,ioos:station:TCOON:524:1,2008-12-01T05:06:00Z,29.8672,-93.9310,0.0,5.5,275.0,7.6,'11111222,11111222,11111222' 
TCOON,ioos:station:TCOON:524:1,2008-12-01T05:12:00Z,29.8672,-93.9310,0.0,4.3,273.0,6.1,'11111222,11111222,11111222' 
TCOON,ioos:station:TCOON:524:1,2008-12-01T05:18:00Z,29.8672,-93.9310,0.0,5.7,270.0,8.4,'11111222,11111222,11111222' 
TCOON,ioos:station:TCOON:524:1,2008-12-01T05:24:00Z,29.8672,-93.9310,0.0,4.9,273.0,6.7,'11111222,11111222,11111222' 
TCOON,ioos:station:TCOON:524:1,2008-12-01T05:30:00Z,29.8672,-93.9310,0.0,5.7,272.0,7.7,'11111222,11111222,11111222' 
TCOON,ioos:station:TCOON:524:1,2008-12-01T05:36:00Z,29.8672,-93.9310,0.0,5.6,271.0,8.4,'11111222,11111222,11111222' 
TCOON,ioos:station:TCOON:524:1,2008-12-01T05:42:00Z,29.8672,-93.9310,0.0,4.5,275.0,6.8,'11111222,11111222,11111222' 
TCOON,ioos:station:TCOON:524:1,2008-12-01T05:48:00Z,29.8672,-93.9310,0.0,4.8,274.0,6.5,'11111222,11111222,11111222' 
TCOON,ioos:station:TCOON:524:1,2008-12-01T05:54:00Z,29.8672,-93.9310,0.0,5.6,273.0,7.7,'11111222,11111222,11111222' 
TCOON,ioos:station:TCOON:524:1,2008-12-01T06:00:00Z,29.8672,-93.9310,0.0,4.1,278.0,6.0,'11111222,11111222,11111222' 
TCOON,ioos:station:TCOON:524:1,2008-12-01T06:06:00Z,29.8672,-93.9310,0.0,4.2,276.0,6.6,'11111222,11111222,11111222' 
TCOON,ioos:station:TCOON:524:1,2008-12-01T06:12:00Z,29.8672,-93.9310,0.0,4.1,275.0,5.8,'11111222,11111222,11111222' 
TCOON,ioos:station:TCOON:524:1,2008-12-01T06:18:00Z,29.8672,-93.9310,0.0,3.9,281.0,5.6,'11111222,11111222,11111222' 
TCOON,ioos:station:TCOON:524:1,2008-12-01T06:24:00Z,29.8672,-93.9310,0.0,5.0,283.0,6.8,'11111222,11111222,11111222' 
TCOON,ioos:station:TCOON:524:1,2008-12-01T06:30:00Z,29.8672,-93.9310,0.0,3.9,291.0,5.8,'11111222,11111222,11111222' 
TCOON,ioos:station:TCOON:524:1,2008-12-01T06:36:00Z,29.8672,-93.9310,0.0,3.9,282.0,5.7,'11111222,11111222,11111222' 
TCOON,ioos:station:TCOON:524:1,2008-12-01T06:42:00Z,29.8672,-93.9310,0.0,5.8,283.0,7.7,'11111222,11111222,11111222' 
TCOON,ioos:station:TCOON:524:1,2008-12-01T06:48:00Z,29.8672,-93.9310,0.0,4.6,283.0,6.2,'11111222,11111222,11111222' 
TCOON,ioos:station:TCOON:524:1,2008-12-01T06:54:00Z,29.8672,-93.9310,0.0,5.1,280.0,7.1,'11111222,11111222,11111222' 
TCOON,ioos:station:TCOON:524:1,2008-12-01T07:00:00Z,29.8672,-93.9310,0.0,5.0,283.0,6.3,'11111222,11111222,11111222' 
TCOON,ioos:station:TCOON:524:1,2008-12-01T07:06:00Z,29.8672,-93.9310,0.0,4.7,280.0,7.5,'11111222,11111222,11111222' 
TCOON,ioos:station:TCOON:524:1,2008-12-01T07:12:00Z,29.8672,-93.9310,0.0,5.4,281.0,7.4,'11111222,11111222,11111222' 
TCOON,ioos:station:TCOON:524:1,2008-12-01T07:18:00Z,29.8672,-93.9310,0.0,3.3,266.0,4.9,'11111222,11111222,11111222' 
TCOON,ioos:station:TCOON:524:1,2008-12-01T07:24:00Z,29.8672,-93.9310,0.0,3.8,270.0,5.0,'11111222,11111222,11111222' 
TCOON,ioos:station:TCOON:524:1,2008-12-01T07:30:00Z,29.8672,-93.9310,0.0,3.8,268.0,4.8,'11111222,11111222,11111222' 
TCOON,ioos:station:TCOON:524:1,2008-12-01T07:36:00Z,29.8672,-93.9310,0.0,3.5,270.0,4.6,'11111222,11111222,11111222' 
TCOON,ioos:station:TCOON:524:1,2008-12-01T07:42:00Z,29.8672,-93.9310,0.0,3.3,265.0,4.6,'11111222,11111222,11111222' 
TCOON,ioos:station:TCOON:524:1,2008-12-01T07:48:00Z,29.8672,-93.9310,0.0,4.0,273.0,5.5,'11111222,11111222,11111222' 
TCOON,ioos:station:TCOON:524:1,2008-12-01T07:54:00Z,29.8672,-93.9310,0.0,3.9,264.0,5.4,'11111222,11111222,11111222' 
TCOON,ioos:station:TCOON:524:1,2008-12-01T08:00:00Z,29.8672,-93.9310,0.0,4.3,266.0,5.9,'11111222,11111222,11111222' 
TCOON,ioos:station:TCOON:524:1,2008-12-01T08:06:00Z,29.8672,-93.9310,0.0,4.4,275.0,6.3,'11111222,11111222,11111222' 
TCOON,ioos:station:TCOON:524:1,2008-12-01T08:12:00Z,29.8672,-93.9310,0.0,4.6,270.0,6.4,'11111222,11111222,11111222' 
TCOON,ioos:station:TCOON:524:1,2008-12-01T08:18:00Z,29.8672,-93.9310,0.0,5.1,267.0,6.6,'11111222,11111222,11111222' 
TCOON,ioos:station:TCOON:524:1,2008-12-01T08:24:00Z,29.8672,-93.9310,0.0,5.5,261.0,7.9,'11111222,11111222,11111222' 
TCOON,ioos:station:TCOON:524:1,2008-12-01T08:30:00Z,29.8672,-93.9310,0.0,3.8,263.0,6.7,'11111222,11111222,11111222' 
TCOON,ioos:station:TCOON:524:1,2008-12-01T08:36:00Z,29.8672,-93.9310,0.0,4.1,267.0,6.6,'11111222,11111222,11111222' 
TCOON,ioos:station:TCOON:524:1,2008-12-01T08:42:00Z,29.8672,-93.9310,0.0,5.9,268.0,8.1,'11111222,11111222,11111222' 
TCOON,ioos:station:TCOON:524:1,2008-12-01T08:48:00Z,29.8672,-93.9310,0.0,4.6,267.0,7.0,'11111222,11111222,11111222' 
TCOON,ioos:station:TCOON:524:1,2008-12-01T08:54:00Z,29.8672,-93.9310,0.0,5.0,276.0,7.2,'11111222,11111222,11111222' 
TCOON,ioos:station:TCOON:524:1,2008-12-01T09:00:00Z,29.8672,-93.9310,0.0,4.1,270.0,5.9,'11111222,11111222,11111222' 
TCOON,ioos:station:TCOON:524:1,2008-12-01T09:06:00Z,29.8672,-93.9310,0.0,4.4,270.0,5.8,'11111222,11111222,11111222' 
TCOON,ioos:station:TCOON:524:1,2008-12-01T09:12:00Z,29.8672,-93.9310,0.0,4.3,265.0,6.9,'11111222,11111222,11111222' 
TCOON,ioos:station:TCOON:524:1,2008-12-01T09:18:00Z,29.8672,-93.9310,0.0,4.1,274.0,6.6,'11111222,11111222,11111222' 
TCOON,ioos:station:TCOON:524:1,2008-12-01T09:24:00Z,29.8672,-93.9310,0.0,4.4,274.0,6.3,'11111222,11111222,11111222' 
TCOON,ioos:station:TCOON:524:1,2008-12-01T09:30:00Z,29.8672,-93.9310,0.0,4.7,274.0,6.5,'11111222,11111222,11111222' 
TCOON,ioos:station:TCOON:524:1,2008-12-01T09:36:00Z,29.8672,-93.9310,0.0,4.1,275.0,5.9,'11111222,11111222,11111222' 
TCOON,ioos:station:TCOON:524:1,2008-12-01T09:42:00Z,29.8672,-93.9310,0.0,4.6,278.0,6.5,'11111222,11111222,11111222' 
TCOON,ioos:station:TCOON:524:1,2008-12-01T09:48:00Z,29.8672,-93.9310,0.0,4.5,273.0,6.3,'11111222,11111222,11111222' 
TCOON,ioos:station:TCOON:524:1,2008-12-01T09:54:00Z,29.8672,-93.9310,0.0,4.4,269.0,5.5,'11111222,11111222,11111222' 
TCOON,ioos:station:TCOON:524:1,2008-12-01T10:00:00Z,29.8672,-93.9310,0.0,4.0,271.0,5.4,'11111222,11111222,11111222' 
TCOON,ioos:station:TCOON:524:1,2008-12-01T10:06:00Z,29.8672,-93.9310,0.0,4.0,270.0,5.4,'11111222,11111222,11111222' 
TCOON,ioos:station:TCOON:524:1,2008-12-01T10:12:00Z,29.8672,-93.9310,0.0,4.0,270.0,5.6,'11111222,11111222,11111222' 
TCOON,ioos:station:TCOON:524:1,2008-12-01T10:18:00Z,29.8672,-93.9310,0.0,3.6,271.0,4.7,'11111222,11111222,11111222' 
TCOON,ioos:station:TCOON:524:1,2008-12-01T10:24:00Z,29.8672,-93.9310,0.0,5.2,271.0,7.3,'11111222,11111222,11111222' 
TCOON,ioos:station:TCOON:524:1,2008-12-01T10:30:00Z,29.8672,-93.9310,0.0,4.0,257.0,5.4,'11111222,11111222,11111222' 
TCOON,ioos:station:TCOON:524:1,2008-12-01T10:36:00Z,29.8672,-93.9310,0.0,3.4,256.0,4.7,'11111222,11111222,11111222' 
TCOON,ioos:station:TCOON:524:1,2008-12-01T10:42:00Z,29.8672,-93.9310,0.0,4.5,252.0,6.9,'11111222,11111222,11111222' 
TCOON,ioos:station:TCOON:524:1,2008-12-01T10:48:00Z,29.8672,-93.9310,0.0,5.2,250.0,7.1,'11111222,11111222,11111222' 
TCOON,ioos:station:TCOON:524:1,2008-12-01T10:54:00Z,29.8672,-93.9310,0.0,5.2,249.0,6.7,'11111222,11111222,11111222' 
TCOON,ioos:station:TCOON:524:1,2008-12-01T11:00:00Z,29.8672,-93.9310,0.0,5.0,253.0,7.1,'11111222,11111222,11111222' 
TCOON,ioos:station:TCOON:524:1,2008-12-01T11:06:00Z,29.8672,-93.9310,0.0,5.4,257.0,8.4,'11111222,11111222,11111222' 
TCOON,ioos:station:TCOON:524:1,2008-12-01T11:12:00Z,29.8672,-93.9310,0.0,4.7,259.0,6.9,'11111222,11111222,11111222' 
TCOON,ioos:station:TCOON:524:1,2008-12-01T11:18:00Z,29.8672,-93.9310,0.0,4.9,279.0,6.4,'11111222,11111222,11111222' 
TCOON,ioos:station:TCOON:524:1,2008-12-01T11:24:00Z,29.8672,-93.9310,0.0,5.0,273.0,7.1,'11111222,11111222,11111222' 
TCOON,ioos:station:TCOON:524:1,2008-12-01T11:30:00Z,29.8672,-93.9310,0.0,4.8,275.0,7.2,'11111222,11111222,11111222' 
TCOON,ioos:station:TCOON:524:1,2008-12-01T11:36:00Z,29.8672,-93.9310,0.0,4.9,270.0,6.9,'11111222,11111222,11111222' 
TCOON,ioos:station:TCOON:524:1,2008-12-01T11:42:00Z,29.8672,-93.9310,0.0,6.4,281.0,10.2,'11111222,11111222,11111222' 
TCOON,ioos:station:TCOON:524:1,2008-12-01T11:48:00Z,29.8672,-93.9310,0.0,5.5,280.0,7.2,'11111222,11111222,11111222' 
TCOON,ioos:station:TCOON:524:1,2008-12-01T11:54:00Z,29.8672,-93.9310,0.0,5.6,285.0,7.2,'11111222,11111222,11111222' 
TCOON,ioos:station:TCOON:524:1,2008-12-01T12:00:00Z,29.8672,-93.9310,0.0,6.2,284.0,8.5,'11111222,11111222,11111222' 
TCOON,ioos:station:TCOON:524:1,2008-12-01T12:06:00Z,29.8672,-93.9310,0.0,6.3,281.0,8.8,'11111222,11111222,11111222' 
TCOON,ioos:station:TCOON:524:1,2008-12-01T12:12:00Z,29.8672,-93.9310,0.0,6.7,279.0,9.4,'11111222,11111222,11111222' 
TCOON,ioos:station:TCOON:524:1,2008-12-01T12:18:00Z,29.8672,-93.9310,0.0,6.8,280.0,11.3,'11111222,11111222,11111222' 
TCOON,ioos:station:TCOON:524:1,2008-12-01T12:24:00Z,29.8672,-93.9310,0.0,7.8,280.0,10.4,'11111222,11111222,11111222' 
TCOON,ioos:station:TCOON:524:1,2008-12-01T12:30:00Z,29.8672,-93.9310,0.0,6.1,279.0,9.5,'11111222,11111222,11111222' 
TCOON,ioos:station:TCOON:524:1,2008-12-01T12:36:00Z,29.8672,-93.9310,0.0,5.8,276.0,8.2,'11111222,11111222,11111222' 
TCOON,ioos:station:TCOON:524:1,2008-12-01T12:42:00Z,29.8672,-93.9310,0.0,7.6,281.0,11.1,'11111222,11111222,11111222' 
TCOON,ioos:station:TCOON:524:1,2008-12-01T12:48:00Z,29.8672,-93.9310,0.0,7.2,281.0,9.8,'11111222,11111222,11111222' 
TCOON,ioos:station:TCOON:524:1,2008-12-01T12:54:00Z,29.8672,-93.9310,0.0,5.7,284.0,8.3,'11111222,11111222,11111222' 
TCOON,ioos:station:TCOON:524:1,2008-12-01T13:00:00Z,29.8672,-93.9310,0.0,6.0,288.0,8.3,'11111222,11111222,11111222' 
TCOON,ioos:station:TCOON:524:1,2008-12-01T13:06:00Z,29.8672,-93.9310,0.0,5.6,288.0,7.6,'11111222,11111222,11111222' 
TCOON,ioos:station:TCOON:524:1,2008-12-01T13:12:00Z,29.8672,-93.9310,0.0,6.2,288.0,9.5,'11111222,11111222,11111222' 
TCOON,ioos:station:TCOON:524:1,2008-12-01T13:18:00Z,29.8672,-93.9310,0.0,7.3,300.0,9.9,'11111222,11111222,11111222' 
TCOON,ioos:station:TCOON:524:1,2008-12-01T13:24:00Z,29.8672,-93.9310,0.0,6.1,290.0,8.1,'11111222,11111222,11111222' 
TCOON,ioos:station:TCOON:524:1,2008-12-01T13:30:00Z,29.8672,-93.9310,0.0,6.3,287.0,8.5,'11111222,11111222,11111222' 
TCOON,ioos:station:TCOON:524:1,2008-12-01T13:36:00Z,29.8672,-93.9310,0.0,5.2,295.0,7.5,'11111222,11111222,11111222' 
TCOON,ioos:station:TCOON:524:1,2008-12-01T13:42:00Z,29.8672,-93.9310,0.0,5.2,290.0,7.1,'11111222,11111222,11111222' 
TCOON,ioos:station:TCOON:524:1,2008-12-01T13:48:00Z,29.8672,-93.9310,0.0,4.4,300.0,6.1,'11111222,11111222,11111222' 
TCOON,ioos:station:TCOON:524:1,2008-12-01T13:54:00Z,29.8672,-93.9310,0.0,5.7,297.0,8.3,'11111222,11111222,11111222' 
TCOON,ioos:station:TCOON:524:1,2008-12-01T14:00:00Z,29.8672,-93.9310,0.0,6.9,306.0,9.0,'11111222,11111222,11111222' 
TCOON,ioos:station:TCOON:524:1,2008-12-01T14:06:00Z,29.8672,-93.9310,0.0,6.0,305.0,8.1,'11111222,11111222,11111222' 
TCOON,ioos:station:TCOON:524:1,2008-12-01T14:12:00Z,29.8672,-93.9310,0.0,5.7,285.0,8.6,'11111222,11111222,11111222' 
TCOON,ioos:station:TCOON:524:1,2008-12-01T14:18:00Z,29.8672,-93.9310,0.0,6.3,311.0,9.9,'11111222,11111222,11111222' 
TCOON,ioos:station:TCOON:524:1,2008-12-01T14:24:00Z,29.8672,-93.9310,0.0,6.3,303.0,9.4,'11111222,11111222,11111222' 
TCOON,ioos:station:TCOON:524:1,2008-12-01T14:30:00Z,29.8672,-93.9310,0.0,6.4,311.0,9.4,'11111222,11111222,11111222' 
TCOON,ioos:station:TCOON:524:1,2008-12-01T14:36:00Z,29.8672,-93.9310,0.0,5.9,307.0,7.3,'11111222,11111222,11111222' 
TCOON,ioos:station:TCOON:524:1,2008-12-01T14:42:00Z,29.8672,-93.9310,0.0,5.9,313.0,9.5,'11111222,11111222,11111222' 
TCOON,ioos:station:TCOON:524:1,2008-12-01T14:48:00Z,29.8672,-93.9310,0.0,6.3,309.0,8.8,'11111222,11111222,11111222' 
TCOON,ioos:station:TCOON:524:1,2008-12-01T14:54:00Z,29.8672,-93.9310,0.0,8.7,305.0,11.3,'11111222,11111222,11111222' 
TCOON,ioos:station:TCOON:524:1,2008-12-01T15:00:00Z,29.8672,-93.9310,0.0,9.1,327.0,12.1,'11111222,11111222,11111222' 
TCOON,ioos:station:TCOON:524:1,2008-12-01T15:06:00Z,29.8672,-93.9310,0.0,8.2,318.0,10.9,'11111222,11111222,11111222' 
TCOON,ioos:station:TCOON:524:1,2008-12-01T15:12:00Z,29.8672,-93.9310,0.0,7.2,313.0,10.9,'11111222,11111222,11111222' 
TCOON,ioos:station:TCOON:524:1,2008-12-01T15:18:00Z,29.8672,-93.9310,0.0,6.1,313.0,9.1,'11111222,11111222,11111222' 
TCOON,ioos:station:TCOON:524:1,2008-12-01T15:24:00Z,29.8672,-93.9310,0.0,7.6,324.0,11.7,'11111222,11111222,11111222' 
TCOON,ioos:station:TCOON:524:1,2008-12-01T15:30:00Z,29.8672,-93.9310,0.0,9.1,319.0,12.4,'11111222,11111222,11111222' 
TCOON,ioos:station:TCOON:524:1,2008-12-01T15:36:00Z,29.8672,-93.9310,0.0,7.1,319.0,9.6,'11111222,11111222,11111222' 
TCOON,ioos:station:TCOON:524:1,2008-12-01T15:42:00Z,29.8672,-93.9310,0.0,8.8,325.0,12.0,'11111222,11111222,11111222' 
TCOON,ioos:station:TCOON:524:1,2008-12-01T15:48:00Z,29.8672,-93.9310,0.0,6.8,321.0,9.2,'11111222,11111222,11111222' 
TCOON,ioos:station:TCOON:524:1,2008-12-01T15:54:00Z,29.8672,-93.9310,0.0,6.4,320.0,9.3,'11111222,11111222,11111222' 
TCOON,ioos:station:TCOON:524:1,2008-12-01T16:00:00Z,29.8672,-93.9310,0.0,6.5,310.0,9.5,'11111222,11111222,11111222' 
TCOON,ioos:station:TCOON:524:1,2008-12-01T16:06:00Z,29.8672,-93.9310,0.0,5.9,325.0,8.5,'11111222,11111222,11111222' 
TCOON,ioos:station:TCOON:524:1,2008-12-01T16:12:00Z,29.8672,-93.9310,0.0,7.3,299.0,10.0,'11111222,11111222,11111222' 
TCOON,ioos:station:TCOON:524:1,2008-12-01T16:18:00Z,29.8672,-93.9310,0.0,6.2,298.0,10.3,'11111222,11111222,11111222' 
TCOON,ioos:station:TCOON:524:1,2008-12-01T16:24:00Z,29.8672,-93.9310,0.0,6.4,300.0,8.4,'11111222,11111222,11111222' 
TCOON,ioos:station:TCOON:524:1,2008-12-01T16:30:00Z,29.8672,-93.9310,0.0,8.6,287.0,12.9,'11111222,11111222,11111222' 
TCOON,ioos:station:TCOON:524:1,2008-12-01T16:36:00Z,29.8672,-93.9310,0.0,7.0,298.0,10.4,'11111222,11111222,11111222' 
TCOON,ioos:station:TCOON:524:1,2008-12-01T16:42:00Z,29.8672,-93.9310,0.0,7.5,302.0,10.2,'11111222,11111222,11111222' 
TCOON,ioos:station:TCOON:524:1,2008-12-01T16:48:00Z,29.8672,-93.9310,0.0,8.7,308.0,11.8,'11111222,11111222,11111222' 
TCOON,ioos:station:TCOON:524:1,2008-12-01T16:54:00Z,29.8672,-93.9310,0.0,7.6,300.0,11.3,'11111222,11111222,11111222' 
TCOON,ioos:station:TCOON:524:1,2008-12-01T17:00:00Z,29.8672,-93.9310,0.0,6.4,294.0,8.3,'11111222,11111222,11111222' 
TCOON,ioos:station:TCOON:524:1,2008-12-01T17:06:00Z,29.8672,-93.9310,0.0,5.8,285.0,8.0,'11111222,11111222,11111222' 
TCOON,ioos:station:TCOON:524:1,2008-12-01T17:12:00Z,29.8672,-93.9310,0.0,7.4,283.0,11.7,'11111222,11111222,11111222' 
TCOON,ioos:station:TCOON:524:1,2008-12-01T17:18:00Z,29.8672,-93.9310,0.0,5.7,298.0,8.7,'11111222,11111222,11111222' 
TCOON,ioos:station:TCOON:524:1,2008-12-01T17:24:00Z,29.8672,-93.9310,0.0,6.8,288.0,8.6,'11111222,11111222,11111222' 
TCOON,ioos:station:TCOON:524:1,2008-12-01T17:30:00Z,29.8672,-93.9310,0.0,8.4,290.0,11.3,'11111222,11111222,11111222' 
TCOON,ioos:station:TCOON:524:1,2008-12-01T17:36:00Z,29.8672,-93.9310,0.0,4.9,293.0,7.4,'11111222,11111222,11111222' 
TCOON,ioos:station:TCOON:524:1,2008-12-01T17:42:00Z,29.8672,-93.9310,0.0,6.7,316.0,9.8,'11111222,11111222,11111222' 
TCOON,ioos:station:TCOON:524:1,2008-12-01T17:48:00Z,29.8672,-93.9310,0.0,7.0,304.0,9.0,'11111222,11111222,11111222' 
TCOON,ioos:station:TCOON:524:1,2008-12-01T17:54:00Z,29.8672,-93.9310,0.0,8.2,309.0,12.1,'11111222,11111222,11111222' 
TCOON,ioos:station:TCOON:524:1,2008-12-01T18:00:00Z,29.8672,-93.9310,0.0,6.5,308.0,9.1,'11111222,11111222,11111222' 
TCOON,ioos:station:TCOON:524:1,2008-12-01T18:06:00Z,29.8672,-93.9310,0.0,7.1,296.0,9.1,'11111222,11111222,11111222' 
TCOON,ioos:station:TCOON:524:1,2008-12-01T18:12:00Z,29.8672,-93.9310,0.0,5.8,301.0,7.6,'11111222,11111222,11111222' 
TCOON,ioos:station:TCOON:524:1,2008-12-01T18:18:00Z,29.8672,-93.9310,0.0,6.6,314.0,10.0,'11111222,11111222,11111222' 
TCOON,ioos:station:TCOON:524:1,2008-12-01T18:24:00Z,29.8672,-93.9310,0.0,6.4,306.0,9.7,'11111222,11111222,11111222' 
TCOON,ioos:station:TCOON:524:1,2008-12-01T18:30:00Z,29.8672,-93.9310,0.0,8.4,299.0,11.5,'11111222,11111222,11111222' 
TCOON,ioos:station:TCOON:524:1,2008-12-01T18:36:00Z,29.8672,-93.9310,0.0,8.1,296.0,10.5,'11111222,11111222,11111222' 
TCOON,ioos:station:TCOON:524:1,2008-12-01T18:42:00Z,29.8672,-93.9310,0.0,8.1,302.0,11.5,'11111222,11111222,11111222' 
TCOON,ioos:station:TCOON:524:1,2008-12-01T18:48:00Z,29.8672,-93.9310,0.0,9.2,314.0,11.6,'11111222,11111222,11111222' 
TCOON,ioos:station:TCOON:524:1,2008-12-01T18:54:00Z,29.8672,-93.9310,0.0,6.6,301.0,8.9,'11111222,11111222,11111222' 
TCOON,ioos:station:TCOON:524:1,2008-12-01T19:00:00Z,29.8672,-93.9310,0.0,7.3,316.0,10.6,'11111222,11111222,11111222' 
TCOON,ioos:station:TCOON:524:1,2008-12-01T19:06:00Z,29.8672,-93.9310,0.0,7.5,310.0,10.4,'11111222,11111222,11111222' 
TCOON,ioos:station:TCOON:524:1,2008-12-01T19:12:00Z,29.8672,-93.9310,0.0,8.3,318.0,10.8,'11111222,11111222,11111222' 
TCOON,ioos:station:TCOON:524:1,2008-12-01T19:18:00Z,29.8672,-93.9310,0.0,6.8,300.0,9.0,'11111222,11111222,11111222' 
TCOON,ioos:station:TCOON:524:1,2008-12-01T19:24:00Z,29.8672,-93.9310,0.0,8.3,301.0,11.1,'11111222,11111222,11111222' 
TCOON,ioos:station:TCOON:524:1,2008-12-01T19:30:00Z,29.8672,-93.9310,0.0,8.3,313.0,12.5,'11111222,11111222,11111222' 
TCOON,ioos:station:TCOON:524:1,2008-12-01T19:36:00Z,29.8672,-93.9310,0.0,7.7,305.0,11.9,'11111222,11111222,11111222' 
TCOON,ioos:station:TCOON:524:1,2008-12-01T19:42:00Z,29.8672,-93.9310,0.0,7.8,284.0,10.8,'11111222,11111222,11111222' 
TCOON,ioos:station:TCOON:524:1,2008-12-01T19:48:00Z,29.8672,-93.9310,0.0,8.5,290.0,11.5,'11111222,11111222,11111222' 
TCOON,ioos:station:TCOON:524:1,2008-12-01T19:54:00Z,29.8672,-93.9310,0.0,7.7,302.0,12.0,'11111222,11111222,11111222' 
TCOON,ioos:station:TCOON:524:1,2008-12-01T20:00:00Z,29.8672,-93.9310,0.0,10.3,288.0,14.5,'11111222,11111222,11111222' 
TCOON,ioos:station:TCOON:524:1,2008-12-01T20:06:00Z,29.8672,-93.9310,0.0,10.1,295.0,14.5,'11111222,11111222,11111222' 
TCOON,ioos:station:TCOON:524:1,2008-12-01T20:12:00Z,29.8672,-93.9310,0.0,10.9,300.0,16.0,'11111222,11111222,11111222' 
TCOON,ioos:station:TCOON:524:1,2008-12-01T20:18:00Z,29.8672,-93.9310,0.0,9.2,307.0,14.1,'11111222,11111222,11111222' 
TCOON,ioos:station:TCOON:524:1,2008-12-01T20:24:00Z,29.8672,-93.9310,0.0,9.2,293.0,14.9,'11111222,11111222,11111222' 
TCOON,ioos:station:TCOON:524:1,2008-12-01T20:30:00Z,29.8672,-93.9310,0.0,9.3,304.0,13.4,'11111222,11111222,11111222' 
TCOON,ioos:station:TCOON:524:1,2008-12-01T20:36:00Z,29.8672,-93.9310,0.0,10.6,308.0,14.5,'11111222,11111222,11111222' 
TCOON,ioos:station:TCOON:524:1,2008-12-01T20:42:00Z,29.8672,-93.9310,0.0,8.5,292.0,12.7,'11111222,11111222,11111222' 
TCOON,ioos:station:TCOON:524:1,2008-12-01T20:48:00Z,29.8672,-93.9310,0.0,8.5,305.0,12.6,'11111222,11111222,11111222' 
TCOON,ioos:station:TCOON:524:1,2008-12-01T20:54:00Z,29.8672,-93.9310,0.0,10.0,300.0,13.0,'11111222,11111222,11111222' 
TCOON,ioos:station:TCOON:524:1,2008-12-01T21:00:00Z,29.8672,-93.9310,0.0,8.8,285.0,12.6,'11111222,11111222,11111222' 
TCOON,ioos:station:TCOON:524:1,2008-12-01T21:06:00Z,29.8672,-93.9310,0.0,9.5,320.0,12.4,'11111222,11111222,11111222' 
TCOON,ioos:station:TCOON:524:1,2008-12-01T21:12:00Z,29.8672,-93.9310,0.0,9.7,324.0,13.7,'11111222,11111222,11111222' 